#timestamp,LO_Frequency,Hit,StdDev 
1585785615.1,286047000.6,N
1585785616.0,286047000.6,N
1585785635.8,286046998.4,N
1585785655.7,286046995.3,N
1585785675.5,286046995.3,N
1585785695.3,286046997.6,N
1585785715.2,286046999.0,N
1585785735.0,286046997.7,N
1585785735.9,286046997.7,N
1585785755.8,286046997.1,N
1585785775.6,286046995.6,N
1585785795.4,286046993.9,N
1585785815.3,286046996.3,N
1585785835.1,286046993.4,N
1585785855.9,286046997.1,N
1585785875.7,286046996.5,N
1585785895.5,286046997.2,N
1585785915.4,286046995.1,N
1585785935.2,286046997.9,N
1585785955.0,286046996.6,N
1585785956.0,286046996.6,N
1585785975.8,286046999.6,N
1585785995.6,286046996.7,N
1585786015.5,286046999.0,N
1585786035.3,286046997.0,N
1585786055.2,286046998.0,N
1585786075.9,286046995.8,N
1585786095.7,286046993.6,Y
1585786115.6,286046994.9,P
1585786135.4,286046995.8,P
1585786155.3,286046995.6,P
1585786175.1,286046997.6,Y
1585786176.0,286046997.6,P
1585786195.8,286046998.5,N
1585786215.7,286046998.1,N
1585786235.5,286046998.7,N
1585786255.4,286046999.6,N
1585786275.2,286046996.9,N
1585786295.0,286046997.0,N
1585786295.9,286046997.0,N
1585786315.8,286046998.9,N
1585786335.6,286046997.0,N
1585786355.5,286046995.4,Y
1585786375.3,286046998.4,P
1585786395.1,286046999.3,N
1585786415.9,286046998.3,N
1585786435.7,286046998.5,N
1585786455.5,286046998.7,N
1585786475.4,286046999.0,N
1585786495.2,286046999.1,N
1585786515.1,286047001.2,N
1585786516.0,286047001.2,N
1585786535.8,286046999.0,N
1585786555.7,286046998.1,N
1585786575.5,286046998.4,N
1585786595.3,286046999.3,N
1585786615.2,286046998.5,N
1585786635.0,286046998.4,N
1585786635.9,286046998.4,N
1585786655.7,286046999.1,N
1585786675.6,286046998.7,N
1585786695.4,286046999.3,N
1585786715.3,286046999.5,N
1585786735.1,286047000.3,N
1585786736.0,286047000.3,N
1585786755.8,286047001.3,N
1585786775.8,286047004.0,Y
1585786795.6,286047001.8,P
1585786815.5,286047000.0,N
1585786835.3,286047001.0,N
1585786855.1,286047001.8,N
1585786875.9,286047001.4,N
1585786895.7,286047000.1,N
1585786915.6,286047004.3,Y
1585786935.4,286047002.1,P
1585786955.2,286047000.4,N
1585786975.1,286046999.7,N
1585786976.0,286046999.7,N
1585786995.8,286047002.3,N
1585787015.7,286047000.6,N
1585787035.5,286047001.6,N
1585787055.3,286047003.1,Y
1585787075.2,286047003.3,P
1585787095.0,286047003.0,N
1585787095.9,286047003.0,N
1585787115.8,286047005.3,Y
1585787135.6,286047002.3,P
1585787155.4,286047001.4,P
1585787175.3,286046998.6,N
1585787195.1,286047001.2,N
1585787215.8,286047000.0,N
1585787235.7,286047002.1,N
1585787255.5,286046999.9,N
1585787275.4,286046999.9,N
1585787295.2,286047002.5,N
1585787315.0,286047002.8,N
1585787315.9,286047002.8,N
1585787335.8,286047000.6,N
1585787355.6,286047003.9,N
1585787375.5,286047004.2,N
1585787395.3,286047002.3,N
1585787415.1,286047000.0,N
1585787435.9,286047004.2,N
1585787455.7,286047003.2,N
1585787475.5,286047003.5,N
1585787495.4,286047003.9,N
1585787515.2,286047003.6,N
1585787535.1,286047004.1,N
1585787536.0,286047004.1,N
1585787555.8,286047000.6,N
1585787575.6,286047002.3,N
1585787595.5,286047001.4,N
1585787615.3,286047001.7,N
1585787635.2,286047002.3,N
1585787655.9,286047001.4,N
1585787675.7,286047004.3,N
1585787695.6,286047001.4,N
1585787715.4,286047001.9,N
1585787735.2,286047002.1,N
1585787755.1,286047002.2,N
1585787756.0,286047002.2,N
1585787775.8,286047004.4,Y
1585787795.7,286046998.9,P
1585787815.5,286046999.7,N
1585787835.3,286047002.5,N
1585787855.2,286047004.4,N
1585787875.0,286047001.5,N
1585787906.0,286047001.8,E
1585787915.9,286046999.9,N
1585787935.7,286047011.9,P
1585787955.6,286047000.1,N
1585787975.4,286047000.5,N
1585787995.2,286046998.8,N
1585788015.1,286046996.7,N
1585788016.0,286046996.7,N
1585788035.8,286046998.3,N
1585788055.6,286047002.7,N
1585788075.5,286047001.2,N
1585788095.3,286046999.5,N
1585788115.2,286046999.0,N
1585788135.9,286046998.2,N
1585788155.7,286046999.0,N
1585788175.6,286047001.0,N
1585788195.4,286046996.8,N
1585788215.3,286046999.4,N
1585788235.1,286046998.7,N
1585788236.0,286046998.7,N
1585788255.8,286046999.2,N
1585788275.7,286046998.9,N
1585788295.5,286046998.3,N
1585788315.3,286047001.2,N
1585788335.2,286047000.9,N
1585788355.0,286047001.2,N
1585788355.9,286047001.2,N
1585788375.8,286047000.8,N
1585788395.6,286046998.5,N
1585788415.4,286047000.7,N
1585788435.3,286046999.6,N
1585788455.1,286046994.9,N
1585788475.9,286046996.7,N
1585788495.7,286046999.3,N
1585788515.5,286047000.7,N
1585788535.4,286046998.7,N
1585788555.2,286047000.7,N
1585788575.1,286047002.8,N
1585788576.0,286047002.8,N
1585788595.8,286047001.8,N
1585788615.6,286046999.9,N
1585788635.5,286047000.3,N
1585788655.3,286046998.4,N
1585788675.1,286046998.3,N
1585788695.9,286046998.8,N
1585788715.7,286047000.3,N
1585788735.6,286047000.5,N
1585788755.4,286046998.8,N
1585788775.2,286046998.1,N
1585788795.1,286047000.5,N
1585788796.0,286047000.5,N
1585788815.8,286047002.7,N
1585788835.6,286047002.5,N
1585788855.5,286047000.2,N
1585788875.3,286046999.7,N
1585788895.2,286047003.8,N
1585788915.9,286047001.7,N
1585788935.7,286047004.3,N
1585788955.6,286047001.7,N
1585788975.4,286047001.9,N
1585788995.3,286047002.0,N
1585789015.1,286047001.9,N
1585789016.0,286047001.9,N
1585789035.8,286047002.1,N
1585789055.7,286047001.8,N
1585789075.5,286047003.5,N
1585789095.4,286047003.7,N
1585789115.2,286047003.7,N
1585789135.0,286047001.9,N
1585789135.9,286047001.9,N
1585789155.8,286047004.0,N
1585789175.6,286047000.9,N
1585789195.4,286047000.8,N
